Bellaire, MI

1:37 AM EST on January 20, 2017 (GMT -0500)
Antrim County

Weather History for KACB - August, 2013

Change the Weather History Date:

Tuesday, August 6, 2013

  Actual Average (KCVX) Record (KCVX)
Temperature  
Mean Temperature 68 °F -  
Max Temperature 78 °F 84 °F 89 °F (2001)
Min Temperature 57 °F 61 °F 53 °F (2014)
Cooling Degree Days 2    
Growing Degree Days 18 (Base 50)    
Moisture  
Dew Point 60 °F    
Average Humidity 73    
Maximum Humidity 94    
Minimum Humidity 58    
Precipitation  
Precipitation 0.00 in - - ()
Sea Level Pressure  
Sea Level Pressure 29.85 in    
Wind  
Wind Speed 4 mph (SSW)    
Max Wind Speed 10 mph    
Max Gust Speed -    
Visibility 10 miles    
Events      
Averages and records for this station are not official NWS values.
T = Trace of Precipitation, MM = Missing Value Source: NWS Daily Summary

Daily Weather History Graph

Daily Weather History Graph

Search for Another Location

Airport or City:

Trip Planner

Search our weather history database for the weather conditions in past years. The results will help you decide how hot, cold, wet, or windy it might be!

Date:

Astronomy

Aug. 06, 2013 Rise Set
Actual Time 6:32 AM EDT 9:00 PM EDT
Civil Twilight 5:59 AM EDT 9:33 PM EDT
Nautical Twilight 5:17 AM EDT 10:14 PM EDT
Astronomical Twilight 4:30 AM EDT 11:00 PM EDT
Moon 6:25 AM EDT (8/6) 8:30 PM EDT (8/6)
Length of Visible Light 15h 34m
Length of Day
14h 28m
Waning Crescent, 0% of the Moon is Illuminated
Aug 6
Waning Crescent
Aug 6
New
Aug 14
First Quarter
Aug 20
Full
Aug 28
Last Quarter

Hourly Weather History & Observations

Time (EDT) Temp. Dew Point Humidity Pressure Visibility Wind Dir Wind Speed Gust Speed Precip Events Conditions
12:14 AM 64.4 °F 54.0 °F 69% 29.90 in 10.0 mi South 4.6 mph - N/A   Overcast
12:35 AM 64.8 °F 54.5 °F 69% 29.90 in 10.0 mi South 4.6 mph - N/A   Overcast
12:54 AM 64.9 °F 54.7 °F 69% 29.90 in 10.0 mi South 3.5 mph - N/A   Overcast
1:14 AM 64.9 °F 55.0 °F 70% 29.90 in 10.0 mi South 4.6 mph - N/A   Overcast
1:35 AM 65.3 °F 55.4 °F 70% 29.90 in 10.0 mi South 5.8 mph - N/A   Overcast
1:54 AM 64.9 °F 55.4 °F 71% 29.90 in 10.0 mi South 5.8 mph - N/A   Overcast
2:15 AM 64.8 °F 55.6 °F 72% 29.89 in 10.0 mi South 3.5 mph - N/A   Overcast
2:35 AM 64.8 °F 55.9 °F 73% 29.89 in 10.0 mi South 4.6 mph - N/A   Overcast
2:54 AM 64.4 °F 55.9 °F 74% 29.89 in 10.0 mi South 3.5 mph - N/A   Overcast
3:15 AM 64.0 °F 56.3 °F 76% 29.89 in 10.0 mi Calm Calm - N/A   Overcast
3:34 AM 63.5 °F 56.3 °F 77% 29.89 in 10.0 mi South 3.5 mph - N/A   Overcast
3:54 AM 62.6 °F 55.9 °F 79% 29.88 in 10.0 mi South 3.5 mph - N/A   Overcast
4:15 AM 62.1 °F 55.6 °F 79% 29.88 in 10.0 mi Calm Calm - N/A   Scattered Clouds
4:34 AM 60.8 °F 55.8 °F 83% 29.87 in 10.0 mi Calm Calm - N/A   Mostly Cloudy
4:54 AM 57.0 °F 54.7 °F 92% 29.87 in 10.0 mi Calm Calm - N/A   Scattered Clouds
5:15 AM 57.2 °F 55.2 °F 93% 29.87 in 10.0 mi Calm Calm - N/A   Clear
5:34 AM 57.0 °F 55.0 °F 93% 29.87 in 10.0 mi Calm Calm - N/A   Mostly Cloudy
5:55 AM 57.2 °F 55.4 °F 94% 29.87 in 10.0 mi Calm Calm - N/A   Overcast
6:15 AM 58.3 °F 56.5 °F 94% 29.87 in 10.0 mi Calm Calm - N/A   Overcast
6:34 AM 58.6 °F 56.8 °F 94% 29.87 in 10.0 mi Calm Calm - N/A   Overcast
6:55 AM 59.4 °F 57.2 °F 93% 29.88 in 10.0 mi North - - N/A   Overcast
7:15 AM 61.0 °F 58.3 °F 91% 29.89 in 10.0 mi Calm Calm - N/A   Overcast
7:34 AM 61.9 °F 57.9 °F 87% 29.88 in 10.0 mi Calm Calm - N/A   Overcast
7:55 AM 61.9 °F 58.3 °F 88% 29.88 in 10.0 mi Calm Calm - N/A   Overcast
8:14 AM 63.5 °F 58.5 °F 84% 29.87 in 10.0 mi Calm Calm - N/A   Overcast
8:34 AM 64.6 °F 59.0 °F 82% 29.86 in 10.0 mi Calm Calm - N/A   Overcast
8:55 AM 65.7 °F 59.2 °F 80% 29.87 in 10.0 mi Calm Calm - N/A   Mostly Cloudy
9:14 AM 67.5 °F 59.9 °F 77% 29.86 in 10.0 mi SSE 4.6 mph - N/A   Scattered Clouds
9:35 AM 68.4 °F 60.1 °F 75% 29.87 in 10.0 mi South 6.9 mph - N/A   Clear
9:55 AM 70.0 °F 61.0 °F 73% 29.88 in 10.0 mi SSW 6.9 mph - N/A   Clear
10:14 AM 70.3 °F 61.2 °F 73% 29.86 in 10.0 mi South 5.8 mph - N/A   Clear
10:35 AM 71.6 °F 61.7 °F 71% 29.86 in 10.0 mi South 6.9 mph - N/A   Mostly Cloudy
10:55 AM 70.7 °F 61.7 °F 73% 29.86 in 10.0 mi South 6.9 mph - N/A   Overcast
11:14 AM 70.3 °F 61.9 °F 74% 29.87 in 10.0 mi South 5.8 mph - N/A   Overcast
11:35 AM 71.8 °F 61.9 °F 71% 29.87 in 10.0 mi South 5.8 mph - N/A   Mostly Cloudy
11:55 AM 72.5 °F 61.9 °F 69% 29.87 in 10.0 mi SSW 3.5 mph - N/A   Mostly Cloudy
12:14 PM 73.0 °F 62.1 °F 68% 29.86 in 10.0 mi South 4.6 mph - N/A   Overcast
12:35 PM 74.1 °F 62.1 °F 66% 29.86 in 10.0 mi SSW 6.9 mph - N/A   Overcast
12:55 PM 75.2 °F 62.2 °F 64% 29.86 in 10.0 mi SSW 6.9 mph - N/A   Overcast
1:14 PM 76.8 °F 62.8 °F 62% 29.85 in 10.0 mi SSW 9.2 mph - N/A   Mostly Cloudy
1:35 PM 75.7 °F 62.8 °F 64% 29.85 in 10.0 mi SSW 8.1 mph - N/A   Overcast
1:55 PM 75.6 °F 63.0 °F 65% 29.85 in 10.0 mi South 8.1 mph - N/A   Overcast
2:15 PM 76.3 °F 63.3 °F 64% 29.83 in 10.0 mi SW 6.9 mph - N/A   Mostly Cloudy
2:35 PM 76.5 °F 62.8 °F 62% 29.83 in 10.0 mi SSW 9.2 mph - N/A   Mostly Cloudy
2:54 PM 76.8 °F 63.0 °F 62% 29.83 in 10.0 mi South 10.4 mph - N/A   Mostly Cloudy
3:15 PM 78.4 °F 62.4 °F 58% 29.82 in 10.0 mi SSW 6.9 mph - N/A   Mostly Cloudy
3:35 PM 78.3 °F 62.4 °F 58% 29.82 in 10.0 mi SSW 6.9 mph - N/A   Mostly Cloudy
3:54 PM 77.7 °F 62.4 °F 59% 29.82 in 10.0 mi SSW 9.2 mph - N/A   Scattered Clouds
4:15 PM 77.2 °F 62.6 °F 61% 29.81 in 10.0 mi South 4.6 mph - N/A   Clear
4:35 PM 77.0 °F 63.0 °F 62% 29.81 in 10.0 mi SSW 5.8 mph - N/A   Mostly Cloudy
4:54 PM 77.5 °F 62.4 °F 59% 29.81 in 10.0 mi South 4.6 mph - N/A   Mostly Cloudy
5:15 PM 77.0 °F 62.2 °F 60% 29.81 in 10.0 mi SSW 5.8 mph - N/A   Mostly Cloudy
5:35 PM 77.0 °F 62.4 °F 61% 29.81 in 10.0 mi SSW 3.5 mph - N/A   Mostly Cloudy
5:55 PM 77.2 °F 62.8 °F 61% 29.81 in 10.0 mi SSW 4.6 mph - N/A   Scattered Clouds
6:15 PM 78.1 °F 63.1 °F 60% 29.81 in 10.0 mi WSW 4.6 mph - N/A   Scattered Clouds
6:34 PM 78.3 °F 63.3 °F 60% 29.81 in 10.0 mi WSW 4.6 mph - N/A   Scattered Clouds
6:55 PM 77.9 °F 63.5 °F 61% 29.81 in 10.0 mi SW 6.9 mph - N/A   Scattered Clouds
7:15 PM 77.7 °F 63.5 °F 61% 29.81 in 10.0 mi WSW 3.5 mph - N/A   Clear
7:35 PM 77.5 °F 64.0 °F 63% 29.81 in 10.0 mi West 3.5 mph - N/A   Clear
7:55 PM 77.0 °F 63.7 °F 63% 29.81 in 10.0 mi SW 5.8 mph - N/A   Clear
8:15 PM 75.9 °F 63.5 °F 65% 29.81 in 10.0 mi Calm Calm - N/A   Clear
8:35 PM 74.8 °F 63.5 °F 68% 29.81 in 10.0 mi Calm Calm - N/A   Clear
8:55 PM 73.9 °F 63.7 °F 70% 29.80 in 10.0 mi South 3.5 mph - N/A   Clear
9:14 PM 72.9 °F 63.5 °F 72% 29.80 in 10.0 mi South 3.5 mph - N/A   Clear
9:35 PM 70.0 °F 63.5 °F 80% 29.81 in 10.0 mi Calm Calm - N/A   Scattered Clouds
9:55 PM 68.9 °F 63.7 °F 83% 29.81 in 10.0 mi Calm Calm - N/A   Mostly Cloudy
10:14 PM 68.0 °F 63.5 °F 85% 29.81 in 10.0 mi Calm Calm - N/A   Mostly Cloudy
10:35 PM 69.4 °F 63.5 °F 81% 29.81 in 10.0 mi South 4.6 mph - N/A   Mostly Cloudy
10:55 PM 69.1 °F 63.0 °F 81% 29.81 in 10.0 mi Calm Calm - N/A   Scattered Clouds
11:15 PM 67.6 °F 62.6 °F 84% 29.81 in 10.0 mi Calm Calm - N/A   Scattered Clouds
11:35 PM 67.5 °F 62.8 °F 85% 29.81 in 10.0 mi Calm Calm - N/A   Scattered Clouds
11:54 PM 69.1 °F 63.7 °F 83% 29.81 in 10.0 mi Calm Calm - N/A   Mostly Cloudy